Regional Weather Roundup
Issued by NWS

Home | Current Version | Previous Version | Text Only | Print | Product List | Glossary On
Versions: 1 2 3 4 5 6 7 8 9 10 11 12 13 14 15 16 17 18 19 20 21 22 23 24 25 26 27 28 29 30 31 32 33 34 35 36 37 38 39 40 41 42 43 44 45 46 47 48 49 50
000
ASUS44 KBMX 300310
RWRAL

ALABAMA REGIONAL WEATHER ROUNDUP
NATIONAL WEATHER SERVICE BIRMINGHAM AL
1000 PM CDT SUN MAY 29 2016

NOTE: "FAIR" INDICATES FEW OR NO CLOUDS BELOW 12,000 FEET
WITH NO SIGNIFICANT WEATHER AND/OR OBSTRUCTIONS TO VISIBILITY.

THE REMARK "TC" DENOTES TEMPERATURE IN DEGREES CELSIUS.

ALZ001>011-014-016>018-020-300400-
NORTH ALABAMA

CITY           SKY/WX    TMP DP  RH WIND       PRES   REMARKS
MUSCLE SHOALS  CLOUDY    74  65  73 CALM      30.06R
HUNTSVILLE     PTCLDY    77  62  59 NW5       30.05R
DECATUR        CLEAR     73  65  75 N6        30.05R
HALEYVILLE     FAIR      70  66  87 CALM      30.09R
GADSDEN        CLEAR     72  67  84 CALM      30.05R
$$

ALZ012-013-022-023-030>036-040>044-300400-
WEST CENTRAL ALABAMA

CITY           SKY/WX    TMP DP  RH WIND       PRES   REMARKS
TUSCALOOSA     CLEAR     74  69  85 CALM      30.04R
$$

ALZ015-024>027-033>036-040>044-300400-
CENTRAL ALABAMA

CITY           SKY/WX    TMP DP  RH WIND       PRES   REMARKS
BIRMINGHAM     CLEAR     76  66  71 CALM      30.07R
MONTGOMERY     CLEAR     75  67  76 W3        30.03R
SHELBY CO ARPT CLEAR     74  69  85 CALM      30.05R
MAXWELL AFB    NOT AVBL
GREENVILLE     FAIR      75  68  78 CALM      30.04R
$$

ALZ019-021-028-029-037-038-045>048-300400-
EAST CENTRAL ALABAMA

CITY           SKY/WX    TMP DP  RH WIND       PRES   REMARKS
ANNISTON       CLEAR     72  65  78 CALM      30.05R
ALEXANDER CITY CLEAR     73  71  95 CALM      30.06R
AUBURN         CLEAR    N/A N/A N/A CALM      30.07R
$$

ALZ051>064-300400-
SOUTHWEST ALABAMA

CITY           SKY/WX    TMP DP  RH WIND       PRES   REMARKS
MOBILE         CLEAR     75  70  84 CALM      30.05S
BROOKLEY FIELD CLEAR     72  71  97 W3        30.06R
EVERGREEN      CLEAR     72  69  90 CALM      30.04R
$$

ALZ049-050-065>069-300400-
SOUTHEAST ALABAMA

CITY           SKY/WX    TMP DP  RH WIND       PRES   REMARKS
DOTHAN         CLEAR     79  67  66 W5        30.07R
OZARK          NOT AVBL
TROY           CLEAR     73  68  84 CALM      30.05R
EUFAULA        FAIR      71  66  84 CALM      30.02R
$$



USA.gov is the U.S. government's official web portal to all federal, state and local government web resources and services.